sat.trackr.live / text

‹ back to catalog

ORBCOMM FM19

NORAD 25415 · 1998-046C

PAYLOAD ACTIVE UNKNOWN

§ Identity

Operator
Country
ORB
Launch date
1998-08-02
Launch site
ERAS
Launch vehicle
Mass (kg)
RCS (m²)
0.52

Purposes: comms

External: N2YO · Heavens-Above · Gunter

§ Orbital elements

Epoch: 2026-09-19T07:56:16.159776Z

Period
100.02 min
Inclination
44.9930°
Eccentricity
0.0004298
Mean motion
14.39642262 rev/d
Perigee alt
756.6 km
Apogee alt
762.7 km
Semi-major
7,137.8 km
B*
2.2477e-4
RAAN
156.0067°
Arg perigee
46.6764°
Mean anomaly
51.6346°
Rev number
47,034

§ Raw data

ORBCOMM FM191 25415U 98046C   26262.33074259  .00000566  00000+0  22477-3 0  99962 25415  44.9930 156.0067 0004298  46.6764  51.6346 14.39642262470341

JSON: /api/v1/satellites/25415 · /tle

For live sub-satellite position, see the globe view (requires WebGL).

§ Visibility from observer

Set your observer location to see the next 7 days of passes ≥ 10°. The values pass through the URL so the page stays shareable.

No JS? Fill the form by hand. The geolocation button needs JavaScript.